Погода в Тургеневке

Россия / Иркутская область     53°01′36″N   105°40′05″E
темп.,
°C
ветер,
м/с
пор.,
м/с
влажн.,
%
обл.,
%
осадки,
мм/ч
давл.,
гПа
погр.,
м
1 июля, пт
пт123:00+16з115529 0.0 100411
02:00+14вюв00750 0.0 100511
05:00+14всв11950 0.0 100511
08:00+20св23700 0.0 1004335
11:00+29юв22270 0.0 10011377
14:00+32ююз13160 0.0 9992653
17:00+32ююз22165 0.0 9982632
20:00+25вюв243745 0.0 99860
2 июля, сб
сб223:00+18юв225058 0.0 99923
02:00+17в2247100 0.0 99918
05:00+16ююз225744 0.0 100031
08:00+20ююз46705 0.0 1000492
11:00+24зюз45558 0.0 999893
14:00+25з665294 0.0 9981022
17:00+24з565677 0.0 998755
20:00+17з5997100 1.6 1001399
3 июля, вс
вс323:00+16зсз3898100 1.7 1003471
02:00+14зсз3897100 2.3 1004492
05:00+14ссз399878 2.4 1003422
08:00+13сз4896100 2.4 1005457
11:00+17сз4671100 0.1 10051060
14:00+21с3550100 0.1 10041714
17:00+21ссв45519 0.0 10021200
20:00+19ссв3657100 0.0 1003530
4 июля, пн
пн423:00+13ссв2795100 0.0 1004175
02:00+11ссв2898100 0.0 1004221
05:00+10с2498100 0.0 1004116
08:00+15с2677100 0.0 1004489
11:00+20сз354962 0.1 10031836
14:00+21ссв244384 0.1 10021654
17:00+18сз2461100 0.0 1003118
20:00+17с2371100 0.3 100475
5 июля, вт
вт523:00+14ссз118512 0.3 100611
02:00+11с11925 0.3 100611
05:00+10с2293100 0.0 100618
08:00+15с2578100 0.0 1006333
11:00+20ссв4649100 0.0 10041603
14:00+20ссв3548100 0.0 10031500
17:00+17ссз2763100 0.1 1003454
20:00+17ссв1167100 0.1 100224